Santa Maria, CA

11:19 AM PST on December 13, 2017 (GMT -0800)
Santa Maria Public Airport / Captain G. Allan Hancock Field

Weather History for KSMX - October, 2014

Change the Weather History Date:

Wednesday, October 15, 2014

  Actual Average Record
Temperature  
Mean Temperature 69 °F 61 °F  
Max Temperature 79 °F 73 °F 100 °F (1961)
Min Temperature 59 °F 49 °F 30 °F (1920)
Degree Days  
Heating Degree Days 0 4  
Month to date heating degree days 1 60  
Since 1 July heating degree days 2 277  
Cooling Degree Days 4 1  
Month to date cooling degree days 93 15  
Year to date cooling degree days 530 97  
Growing Degree Days 20 (Base 50)    
Moisture  
Dew Point 56 °F    
Average Humidity 65    
Maximum Humidity 84    
Minimum Humidity 45    
Precipitation  
Precipitation 0.00 in 0.02 in 0.48 in (1963)
Month to date precipitation 0.00 0.18  
Year to date precipitation 4.01 10.08  
Since 1 July precipitation T  
Sea Level Pressure  
Sea Level Pressure 29.98 in    
Wind  
Wind Speed 7 mph (West)    
Max Wind Speed 20 mph    
Max Gust Speed 22 mph    
Visibility 9 miles    
Events      
T = Trace of Precipitation, MM = Missing Value Source: NWS Daily Summary

Daily Weather History Graph

Daily Weather History Graph

Search for Another Location

Airport or City:

Trip Planner

Search our weather history database for the weather conditions in past years. The results will help you decide how hot, cold, wet, or windy it might be!

Date:

Astronomy

Oct. 15, 2014 Rise Set
Actual Time 7:07 AM PDT 6:26 PM PDT
Civil Twilight 6:42 AM PDT 6:52 PM PDT
Nautical Twilight 6:12 AM PDT 7:21 PM PDT
Astronomical Twilight 5:43 AM PDT 7:50 PM PDT
Moon No Moon Rise 1:47 PM PDT (10/15)
Length of Visible Light 12h 10m
Length of Day
11h 19m
Waning Gibbous, 50% of the Moon is Illuminated
Oct 15
Waning Gibbous
Oct 15
Last Quarter
Oct 23
New
Oct 30
First Quarter
Nov 6
Full

Hourly Weather History & Observations

Time (PDT) Temp. Dew Point Humidity Pressure Visibility Wind Dir Wind Speed Gust Speed Precip Events Conditions
12:51 AM 69.1 °F 55.9 °F 63% 29.94 in 10.0 mi SSE 5.8 mph - N/A   Overcast
1:51 AM 66.9 °F 55.9 °F 68% 29.94 in 10.0 mi SSE 4.6 mph - N/A   Overcast
2:51 AM 68.0 °F 55.9 °F 65% 29.94 in 10.0 mi Calm Calm - N/A   Overcast
3:51 AM 68.0 °F 57.9 °F 70% 29.94 in 10.0 mi South 5.8 mph - N/A   Overcast
4:51 AM 68.0 °F 57.0 °F 68% 29.97 in 10.0 mi NW 4.6 mph - N/A   Overcast
5:51 AM 66.9 °F 57.0 °F 70% 29.97 in 10.0 mi Calm Calm - N/A   Overcast
6:51 AM 66.9 °F 57.0 °F 70% 29.99 in 10.0 mi ENE 4.6 mph - N/A   Overcast
7:51 AM 68.0 °F 57.0 °F 68% 30.00 in 6.0 mi Calm Calm - N/A   Haze
8:51 AM 70.0 °F 57.0 °F 63% 30.01 in 9.0 mi Calm Calm - N/A   Mostly Cloudy
9:51 AM 71.1 °F 57.0 °F 61% 30.02 in 9.0 mi NW 5.8 mph - N/A   Mostly Cloudy
10:51 AM 73.0 °F 55.9 °F 55% 30.02 in 9.0 mi North 4.6 mph - N/A   Mostly Cloudy
11:51 AM 73.9 °F 55.9 °F 53% 30.02 in 9.0 mi West 8.1 mph - N/A   Mostly Cloudy
12:51 PM 78.1 °F 55.0 °F 45% 30.00 in 10.0 mi WNW 8.1 mph - N/A   Scattered Clouds
1:51 PM 78.1 °F 55.0 °F 45% 29.97 in 10.0 mi WNW 17.3 mph - N/A   Scattered Clouds
2:51 PM 75.9 °F 54.0 °F 46% 29.98 in 10.0 mi NW 19.6 mph - N/A   Scattered Clouds
3:51 PM 75.0 °F 55.0 °F 50% 29.97 in 10.0 mi WNW 13.8 mph - N/A   Partly Cloudy
4:51 PM 73.0 °F 55.9 °F 55% 29.97 in 9.0 mi NW 16.1 mph 21.9 mph N/A   Clear
5:51 PM 70.0 °F 57.0 °F 63% 29.97 in 9.0 mi NW 11.5 mph - N/A   Clear
6:51 PM 66.0 °F 57.9 °F 75% 29.97 in 9.0 mi NW 9.2 mph - N/A   Partly Cloudy
7:51 PM 64.9 °F 59.0 °F 81% 29.99 in 8.0 mi WNW 8.1 mph - N/A   Clear
8:51 PM 64.0 °F 57.9 °F 80% 30.00 in 8.0 mi West 8.1 mph - N/A   Clear
9:51 PM 64.0 °F 57.9 °F 80% 30.01 in 7.0 mi WSW 3.5 mph - N/A   Clear
10:51 PM 62.1 °F 55.9 °F 80% 30.01 in 7.0 mi South 4.6 mph - N/A   Clear
11:51 PM 60.1 °F 55.0 °F 83% 30.01 in 8.0 mi South 3.5 mph - N/A   Clear